Flag for Austria Weather past 2 weeks in Ansfelden, Upper Austria, Austria

50 °F

Light rain. Passing clouds.

Feels Like: 44 °F
Forecast: 38 / 48 °F
Wind: 20 mph from West

Location: Linz / Hoersching-Flughafen

Current Time: Dec 1, 2015 at 1:57:49 AM

Latest Report: Dec 1, 2015 at 12:50 AM

Visibility: N/A

Pressure: 30.07 "Hg

Humidity: 71%

Dew point: 41 °F

Location of AnsfeldenLocation

Historic Weather in Ansfelden — Graph


Ansfelden temperature yesterday

Maximum temperature yesterday: 54 °F (at 10:50 PM)
Minimum temperature yesterday: 48 °F (at 2:50 PM)
Average temperature yesterday: 51 °F

Past Weeks' High & Low Weather Summary

High63 °F (Nov 18, 9:20 AM)100% (Nov 16, 9:20 PM)30.30 "Hg (Nov 16, 9:20 PM)
Low21 °F (Nov 25, 5:20 AM)45% (Nov 18, 11:50 AM)29.42 "Hg (Nov 21, 1:50 PM)
Average42 °F81%29.95 "Hg
* Reported Nov 16 12:20 AM — Dec 1 12:50 AM, Ansfelden, Weather by CustomWeather, © 2015

Note: Actual official high and low records may vary slightly from our data, if they occured in-between our weather recording intervals... More about our weather records


Ansfelden weather history for previous 24 hours

Time TempWeatherWind HumidityBarometerVisibility
12:50 AM
Tue, Dec 1
50 °FLight rain. Passing clouds.20 mph71%30.07 "HgN/A
12:20 AM50 °FLight rain. Passing clouds.28 mph71%30.07 "HgN/A
11:20 PM
Mon, Nov 30
54 °FPassing clouds.24 mph54%30.04 "HgN/A
10:50 PM54 °FPassing clouds.22 mph51%30.07 "HgN/A
10:20 PM52 °FPassing clouds.18 mph54%30.07 "HgN/A
9:50 PM52 °FPassing clouds.21 mph58%30.09 "HgN/A
9:20 PM52 °FPassing clouds.23 mph58%30.09 "HgN/A
8:50 PM52 °FPartly cloudy.16 mph58%30.09 "HgN/A
8:20 PM52 °FPassing clouds.15 mph62%30.09 "HgN/A
7:50 PM52 °FPassing clouds.21 mph62%30.12 "HgN/A
7:20 PM52 °FPartly cloudy.23 mph62%30.12 "HgN/A
6:50 PM52 °FPassing clouds.21 mph58%30.09 "HgN/A
6:20 PM52 °FPartly cloudy.23 mph58%30.09 "HgN/A
5:50 PM50 °FPartly cloudy.25 mph67%30.09 "HgN/A
5:20 PM52 °FPartly cloudy.22 mph62%30.12 "HgN/A
4:50 PM50 °FPassing clouds.21 mph71%30.12 "HgN/A
4:20 PM50 °FLight rain. Passing clouds.21 mph71%30.12 "HgN/A
3:50 PM50 °FLight rain. Partly sunny.25 mph71%30.12 "HgN/A
3:20 PM50 °FLight rain. Broken clouds.25 mph71%30.12 "HgN/A
2:50 PM48 °FLight rain. Broken clouds.21 mph82%30.15 "HgN/A
2:20 PM50 °FLight rain. Broken clouds.22 mph76%30.15 "HgN/A
1:50 PM50 °FLight rain. Broken clouds.24 mph71%30.15 "HgN/A
1:20 PM50 °FLight rain. Broken clouds.26 mph71%30.12 "HgN/A
12:50 PM52 °FLight rain. Broken clouds.28 mph67%30.12 "HgN/A
12:20 PM52 °FBroken clouds.28 mph62%30.12 "HgN/A
11:50 AM52 °FBroken clouds.30 mph62%30.12 "HgN/A
11:20 AM52 °FLight rain. Broken clouds.30 mph67%30.12 "HgN/A
10:50 AM50 °FLight rain. Broken clouds.25 mph71%30.15 "HgN/A
10:20 AM52 °FLight rain. Broken clouds.26 mph62%30.12 "HgN/A
9:50 AM52 °FPartly sunny.25 mph62%30.12 "HgN/A
9:20 AM52 °FPartly sunny.25 mph62%30.12 "HgN/A
8:50 AM52 °FPartly sunny.26 mph62%30.12 "HgN/A
8:20 AM52 °FPartly sunny.26 mph62%30.09 "HgN/A
7:50 AM52 °FPartly sunny.26 mph62%30.09 "HgN/A
7:20 AM50 °FLight rain. Partly cloudy.28 mph67%30.09 "HgN/A
6:50 AM52 °FPassing clouds.28 mph58%30.07 "HgN/A
6:20 AM52 °FLight rain. Passing clouds.25 mph58%30.07 "HgN/A
5:50 AM52 °FLight rain. Passing clouds.25 mph58%30.07 "HgN/A
5:20 AM52 °FPassing clouds.25 mph58%30.07 "HgN/A
4:20 AM52 °FPartly cloudy.23 mph58%30.07 "HgN/A
3:50 AM52 °FPartly cloudy.21 mph58%30.07 "HgN/A
3:20 AM50 °FPartly cloudy.20 mph62%30.07 "HgN/A
2:50 AM52 °FPartly cloudy.21 mph58%30.07 "HgN/A
2:20 AM52 °FPartly cloudy.22 mph58%30.07 "HgN/A
1:20 AM50 °FPartly cloudy.20 mph67%30.07 "HgN/A
Weather by CustomWeather, © 2015

See weather overviewHow to use our weather pages